| time (UTC) | temp C | wind direction | speed KPH | gust KPH | rain 1hr cm | rain 24hr cm | rain mn cm | humidity % | barometer mb |
| 20260906105530 | 30 | 170 | 3.2 | 6.4 | 0.00 | 0.00 | 0.00 | 55 | 1023.1 |
| 20260906104527 | 30 | 187 | 3.2 | 8.0 | 0.00 | 0.00 | 0.00 | 56 | 1023.1 |
| 20260906103525 | 30 | 186 | 1.6 | 6.4 | 0.00 | 0.00 | 0.00 | 57 | 1023.1 |
| 20260906102522 | 29 | 188 | 3.2 | 8.0 | 0.00 | 0.00 | 0.00 | 59 | 1023.2 |
| 20260906101520 | 28 | 73 | 1.6 | 4.8 | 0.00 | 0.00 | 0.00 | 64 | 1023.3 |
| 20260906100517 | 28 | 166 | 1.6 | 8.0 | 0.00 | 0.00 | 0.00 | 64 | 1023.3 |
| 20260906095535 | 28 | 97 | 1.6 | 4.8 | 0.00 | 0.00 | 0.00 | 65 | 1023.3 |
| 20260906094533 | 28 | 125 | 3.2 | 8.0 | 0.00 | 0.00 | 0.00 | 64 | 1023.3 |
| 20260906093530 | 28 | 131 | 1.6 | 4.8 | 0.00 | 0.00 | 0.00 | 65 | 1023.2 |
| 20260906092528 | 28 | 106 | 1.6 | 4.8 | 0.00 | 0.00 | 0.00 | 64 | 1023.2 |
| 20260906091525 | 27 | 191 | 3.2 | 6.4 | 0.00 | 0.00 | 0.00 | 65 | 1023.3 |
| 20260906090523 | 27 | 191 | 3.2 | 4.8 | 0.00 | 0.00 | 0.00 | 67 | 1023.2 |
| 20260906083516 | 27 | 179 | 1.6 | 4.8 | 0.00 | 0.00 | 0.00 | 70 | 1023.1 |
| 20260906082534 | 26 | 187 | 3.2 | 6.4 | 0.00 | 0.00 | 0.00 | 73 | 1023.0 |
| 20260906081531 | 26 | 190 | 3.2 | 4.8 | 0.00 | 0.00 | 0.00 | 72 | 1023.0 |
| 20260906080529 | 27 | 173 | 1.6 | 4.8 | 0.00 | 0.00 | 0.00 | 72 | 1023.0 |
| 20260906075526 | 27 | 95 | 0.0 | 3.2 | 0.00 | 0.00 | 0.00 | 71 | 1022.8 |
| 20260906074524 | 27 | 172 | 0.0 | 3.2 | 0.00 | 0.00 | 0.00 | 71 | 1022.9 |
| 20260906073521 | 26 | 186 | 0.0 | 3.2 | 0.00 | 0.00 | 0.00 | 71 | 1022.7 |
| 20260906072519 | 26 | 181 | 1.6 | 3.2 | 0.00 | 0.00 | 0.00 | 73 | 1022.7 |
| 20260906071517 | 25 | 190 | 3.2 | 4.8 | 0.00 | 0.00 | 0.00 | 75 | 1022.6 |
| 20260906070534 | 25 | 185 | 1.6 | 4.8 | 0.00 | 0.00 | 0.00 | 75 | 1022.5 |
| 20260906065532 | 24 | 193 | 1.6 | 4.8 | 0.00 | 0.00 | 0.00 | 77 | 1022.4 |
| 20260906064529 | 25 | 151 | 0.0 | 3.2 | 0.00 | 0.00 | 0.00 | 75 | 1022.3 |
| 20260906063527 | 23 | 197 | 1.6 | 4.8 | 0.00 | 0.00 | 0.00 | 79 | 1022.3 |
| 20260906062525 | 22 | 193 | 3.2 | 4.8 | 0.00 | 0.00 | 0.00 | 80 | 1022.2 |
| 20260906061522 | 23 | 193 | 1.6 | 4.8 | 0.00 | 0.00 | 0.00 | 81 | 1022.1 |
| 20260906060520 | 24 | 176 | 1.6 | 3.2 | 0.00 | 0.00 | 0.00 | 78 | 1021.9 |
| 20260906055517 | 23 | 249 | 0.0 | 3.2 | 0.00 | 0.00 | 0.00 | 83 | 1021.8 |
| 20260906054515 | 23 | 195 | 0.0 | 1.6 | 0.00 | 0.00 | 0.00 | 79 | 1021.7 |
| 20260906053533 | 22 | 0.0 | 1.6 | 0.00 | 0.00 | 0.00 | 82 | 1021.8 | |
| 20260906052530 | 21 | 222 | 0.0 | 1.6 | 0.00 | 0.00 | 0.00 | 86 | 1021.7 |
| 20260906051528 | 20 | 205 | 0.0 | 3.2 | 0.00 | 0.00 | 0.00 | 89 | 1021.6 |
| 20260906050525 | 20 | 293 | 0.0 | 3.2 | 0.00 | 0.00 | 0.00 | 91 | 1021.5 |
| 20260906045523 | 20 | 0.0 | 1.6 | 0.00 | 0.00 | 0.00 | 92 | 1021.5 | |
| 20260906044521 | 20 | 250 | 0.0 | 3.2 | 0.00 | 0.00 | 0.00 | 92 | 1021.4 |
| 20260906043518 | 20 | 273 | 0.0 | 3.2 | 0.00 | 0.00 | 0.00 | 93 | 1021.6 |
| 20260906042516 | 20 | 243 | 0.0 | 3.2 | 0.00 | 0.00 | 0.00 | 93 | 1021.5 |
| 20260906041533 | 20 | 285 | 0.0 | 3.2 | 0.00 | 0.00 | 0.00 | 94 | 1021.4 |
| 20260906040531 | 20 | 299 | 0.0 | 3.2 | 0.00 | 0.00 | 0.00 | 94 | 1021.5 |
| 20260906035529 | 20 | 0.0 | 1.6 | 0.00 | 0.00 | 0.00 | 94 | 1021.3 | |
| 20260906034526 | 20 | 212 | 0.0 | 3.2 | 0.00 | 0.00 | 0.00 | 94 | 1021.3 |
| 20260906033524 | 20 | 259 | 0.0 | 3.2 | 0.00 | 0.00 | 0.00 | 94 | 1021.3 |
| 20260906032521 | 20 | 260 | 1.6 | 3.2 | 0.00 | 0.00 | 0.00 | 95 | 1021.2 |
| 20260906031519 | 20 | 201 | 0.0 | 3.2 | 0.00 | 0.00 | 0.00 | 94 | 1021.4 |
| 20260906030516 | 20 | 206 | 0.0 | 3.2 | 0.00 | 0.00 | 0.00 | 94 | 1021.2 |
| 20260906025534 | 20 | 52 | 0.0 | 3.2 | 0.00 | 0.00 | 0.00 | 94 | 1021.3 |
| 20260906024532 | 20 | 316 | 0.0 | 3.2 | 0.00 | 0.00 | 0.00 | 94 | 1021.2 |
| 20260906023529 | 20 | 207 | 0.0 | 3.2 | 0.00 | 0.00 | 0.00 | 94 | 1021.2 |
| 20260906022527 | 20 | 146 | 0.0 | 3.2 | 0.00 | 0.00 | 0.00 | 95 | 1021.2 |
| 20260906021525 | 20 | 329 | 1.6 | 3.2 | 0.00 | 0.00 | 0.00 | 95 | 1021.4 |
| 20260906020522 | 20 | 227 | 1.6 | 3.2 | 0.00 | 0.00 | 0.00 | 95 | 1021.2 |
| 20260906015520 | 20 | 232 | 0.0 | 3.2 | 0.00 | 0.00 | 0.00 | 95 | 1021.3 |
| 20260906014517 | 20 | 291 | 0.0 | 3.2 | 0.00 | 0.00 | 0.00 | 95 | 1021.3 |
| 20260906013535 | 20 | 102 | 0.0 | 3.2 | 0.00 | 0.00 | 0.00 | 94 | 1021.2 |
| 20260906012532 | 20 | 0.0 | 1.6 | 0.00 | 0.00 | 0.00 | 94 | 1021.3 | |
| 20260906011530 | 20 | 256 | 0.0 | 1.6 | 0.00 | 0.00 | 0.00 | 94 | 1021.3 |
| 20260906010528 | 20 | 0.0 | 0.0 | 0.00 | 0.00 | 0.00 | 94 | 1021.3 | |
| 20260906005525 | 20 | 288 | 0.0 | 1.6 | 0.00 | 0.00 | 0.00 | 94 | 1021.4 |
| 20260906004523 | 21 | 101 | 0.0 | 3.2 | 0.00 | 0.00 | 0.00 | 95 | 1021.3 |
| 20260906003520 | 20 | 253 | 0.0 | 3.2 | 0.00 | 0.00 | 0.00 | 95 | 1021.3 |
| 20260906002518 | 20 | 0.0 | 0.0 | 0.00 | 0.00 | 0.00 | 94 | 1021.3 | |
| 20260906001516 | 21 | 0.0 | 0.0 | 0.00 | 0.00 | 0.00 | 94 | 1021.4 | |
| 20260906000533 | 21 | 66 | 0.0 | 1.6 | 0.00 | 0.00 | 0.00 | 94 | 1021.4 |
| 20260905235531 | 21 | 194 | 0.0 | 1.6 | 0.00 | 0.00 | 0.00 | 93 | 1021.4 |
| 20260905234528 | 21 | 153 | 0.0 | 3.2 | 0.00 | 0.00 | 0.00 | 93 | 1021.5 |
| 20260905233526 | 21 | 232 | 1.6 | 3.2 | 0.00 | 0.00 | 0.00 | 92 | 1021.6 |
| 20260905232523 | 21 | 212 | 0.0 | 3.2 | 0.00 | 0.00 | 0.00 | 92 | 1021.5 |
| 20260905231521 | 21 | 131 | 0.0 | 3.2 | 0.00 | 0.00 | 0.00 | 92 | 1021.7 |
| 20260905230519 | 21 | 294 | 1.6 | 3.2 | 0.00 | 0.00 | 0.00 | 93 | 1021.7 |
| 20260905225516 | 21 | 83 | 0.0 | 1.6 | 0.00 | 0.00 | 0.00 | 92 | 1021.7 |
| 20260905224534 | 21 | 0.0 | 1.6 | 0.00 | 0.00 | 0.00 | 92 | 1021.6 | |
| 20260905223532 | 21 | 261 | 0.0 | 3.2 | 0.00 | 0.00 | 0.00 | 92 | 1021.6 |
| 20260905222529 | 21 | 0.0 | 0.0 | 0.00 | 0.00 | 0.00 | 92 | 1021.4 | |
| 20260905221527 | 21 | 251 | 0.0 | 3.2 | 0.00 | 0.00 | 0.00 | 91 | 1021.4 |
| 20260905220524 | 21 | 267 | 0.0 | 1.6 | 0.00 | 0.00 | 0.00 | 91 | 1021.5 |
| 20260905215522 | 21 | 263 | 0.0 | 1.6 | 0.00 | 0.00 | 0.00 | 91 | 1021.4 |
| 20260905214519 | 21 | 0.0 | 1.6 | 0.00 | 0.00 | 0.00 | 90 | 1021.3 | |
| 20260905213517 | 21 | 260 | 1.6 | 6.4 | 0.00 | 0.00 | 0.00 | 90 | 1021.3 |
| 20260905212535 | 22 | 286 | 0.0 | 3.2 | 0.00 | 0.00 | 0.00 | 89 | 1021.3 |
| 20260905211532 | 22 | 0.0 | 1.6 | 0.00 | 0.00 | 0.00 | 89 | 1021.3 | |
| 20260905210530 | 22 | 243 | 0.0 | 1.6 | 0.00 | 0.00 | 0.00 | 88 | 1021.2 |
| 20260905205527 | 22 | 230 | 0.0 | 1.6 | 0.00 | 0.00 | 0.00 | 88 | 1021.2 |
| 20260905204525 | 22 | 0.0 | 0.0 | 0.00 | 0.00 | 0.00 | 87 | 1021.2 | |
| 20260905203523 | 22 | 0.0 | 0.0 | 0.00 | 0.00 | 0.00 | 87 | 1021.2 | |
| 20260905202520 | 22 | 282 | 0.0 | 1.6 | 0.00 | 0.00 | 0.00 | 87 | 1021.1 |
| 20260905201518 | 22 | 0.0 | 1.6 | 0.00 | 0.00 | 0.00 | 86 | 1021.1 | |
| 20260905200515 | 22 | 0.0 | 0.0 | 0.00 | 0.00 | 0.00 | 86 | 1021.2 | |
| 20260905195533 | 22 | 255 | 0.0 | 1.6 | 0.00 | 0.00 | 0.00 | 86 | 1021.0 |
| 20260905194531 | 22 | 0.0 | 0.0 | 0.00 | 0.00 | 0.00 | 86 | 1021.0 | |
| 20260905193528 | 22 | 0.0 | 0.0 | 0.00 | 0.00 | 0.00 | 85 | 1020.9 | |
| 20260905192526 | 22 | 0.0 | 1.6 | 0.00 | 0.00 | 0.00 | 85 | 1020.9 | |
| 20260905191523 | 22 | 0.0 | 0.0 | 0.00 | 0.00 | 0.00 | 84 | 1020.8 | |
| 20260905190521 | 22 | 0.0 | 1.6 | 0.00 | 0.00 | 0.00 | 84 | 1020.6 | |
| 20260905185519 | 23 | 297 | 0.0 | 3.2 | 0.00 | 0.00 | 0.00 | 84 | 1020.5 |
| 20260905184516 | 23 | 0.0 | 0.0 | 0.00 | 0.00 | 0.00 | 83 | 1020.5 | |
| 20260905183534 | 23 | 0.0 | 0.0 | 0.00 | 0.00 | 0.00 | 82 | 1020.4 | |
| 20260905182531 | 23 | 0.0 | 1.6 | 0.00 | 0.00 | 0.00 | 82 | 1020.3 | |
| 20260905181529 | 23 | 0.0 | 0.0 | 0.00 | 0.00 | 0.00 | 81 | 1020.1 | |
| 20260905180527 | 23 | 0.0 | 0.0 | 0.00 | 0.00 | 0.00 | 80 | 1020.2 | |
| 20260905175524 | 23 | 0.0 | 0.0 | 0.00 | 0.00 | 0.00 | 81 | 1020.1 | |
| 20260905174522 | 23 | 251 | 1.6 | 4.8 | 0.00 | 0.00 | 0.00 | 81 | 1020.1 |
| 20260905173519 | 23 | 247 | 1.6 | 3.2 | 0.00 | 0.00 | 0.00 | 82 | 1020.0 |
| 20260905172517 | 24 | 244 | 0.0 | 3.2 | 0.00 | 0.00 | 0.00 | 81 | 1020.1 |
| 20260905171535 | 24 | 223 | 0.0 | 1.6 | 0.00 | 0.00 | 0.00 | 80 | 1020.0 |
| 20260905170532 | 24 | 223 | 1.6 | 4.8 | 0.00 | 0.00 | 0.00 | 79 | 1020.1 |
| 20260905165530 | 24 | 0.0 | 0.0 | 0.00 | 0.00 | 0.00 | 80 | 1020.0 | |
| 20260905164527 | 24 | 196 | 0.0 | 3.2 | 0.00 | 0.00 | 0.00 | 80 | 1020.1 |
| 20260905163525 | 25 | 198 | 1.6 | 4.8 | 0.00 | 0.00 | 0.00 | 79 | 1020.1 |
| 20260905162523 | 25 | 194 | 1.6 | 6.4 | 0.00 | 0.00 | 0.00 | 78 | 1020.1 |
| 20260905161520 | 25 | 196 | 1.6 | 6.4 | 0.00 | 0.00 | 0.00 | 77 | 1020.0 |
| 20260905160518 | 25 | 218 | 3.2 | 8.0 | 0.00 | 0.00 | 0.00 | 76 | 1020.0 |
| 20260905155515 | 26 | 197 | 4.8 | 9.7 | 0.00 | 0.00 | 0.00 | 73 | 1020.0 |
| 20260905154533 | 26 | 188 | 4.8 | 9.7 | 0.00 | 0.00 | 0.00 | 72 | 1019.9 |
| 20260905153530 | 26 | 191 | 4.8 | 12.9 | 0.00 | 0.00 | 0.00 | 73 | 1020.0 |
| 20260905152529 | 26 | 195 | 6.4 | 12.9 | 0.00 | 0.00 | 0.00 | 71 | 1019.9 |
| 20260905151526 | 26 | 194 | 6.4 | 12.9 | 0.00 | 0.00 | 0.00 | 70 | 1020.0 |
| 20260905150523 | 27 | 191 | 4.8 | 9.7 | 0.00 | 0.00 | 0.00 | 69 | 1020.0 |
| 20260905145521 | 27 | 224 | 4.8 | 11.3 | 0.00 | 0.00 | 0.00 | 68 | 1020.0 |
| 20260905144518 | 27 | 205 | 6.4 | 9.7 | 0.00 | 0.00 | 0.00 | 68 | 1020.1 |
| 20260905143516 | 27 | 203 | 6.4 | 11.3 | 0.00 | 0.00 | 0.00 | 67 | 1020.3 |
| 20260905142534 | 27 | 219 | 4.8 | 9.7 | 0.00 | 0.00 | 0.00 | 67 | 1020.3 |
| 20260905141531 | 27 | 205 | 4.8 | 9.7 | 0.00 | 0.00 | 0.00 | 66 | 1020.3 |
| 20260905140529 | 27 | 208 | 4.8 | 9.7 | 0.00 | 0.00 | 0.00 | 65 | 1020.3 |
| 20260905135526 | 28 | 177 | 4.8 | 11.3 | 0.00 | 0.00 | 0.00 | 64 | 1020.3 |
| 20260905134524 | 28 | 222 | 4.8 | 8.0 | 0.00 | 0.00 | 0.00 | 64 | 1020.5 |
| 20260905133522 | 28 | 222 | 4.8 | 11.3 | 0.00 | 0.00 | 0.00 | 63 | 1020.5 |
| 20260905132519 | 28 | 219 | 4.8 | 8.0 | 0.00 | 0.00 | 0.00 | 63 | 1020.6 |
| 20260905131517 | 28 | 190 | 4.8 | 12.9 | 0.00 | 0.00 | 0.00 | 62 | 1020.7 |
| 20260905130535 | 28 | 188 | 3.2 | 8.0 | 0.00 | 0.00 | 0.00 | 63 | 1020.7 |
| 20260905125532 | 28 | 187 | 4.8 | 14.5 | 0.00 | 0.00 | 0.00 | 62 | 1020.7 |
| 20260905124529 | 28 | 212 | 4.8 | 9.7 | 0.00 | 0.00 | 0.00 | 63 | 1020.9 |
| 20260905123527 | 28 | 211 | 4.8 | 11.3 | 0.00 | 0.00 | 0.00 | 62 | 1020.9 |
| 20260905122525 | 28 | 192 | 6.4 | 16.1 | 0.00 | 0.00 | 0.00 | 61 | 1021.0 |
| 20260905121522 | 28 | 215 | 4.8 | 12.9 | 0.00 | 0.00 | 0.00 | 60 | 1020.9 |
| 20260905120520 | 28 | 193 | 4.8 | 9.7 | 0.00 | 0.00 | 0.00 | 58 | 1021.0 |
| 20260905115517 | 27 | 186 | 6.4 | 16.1 | 0.00 | 0.00 | 0.00 | 57 | 1021.1 |
| 20260905114535 | 28 | 189 | 6.4 | 12.9 | 0.00 | 0.00 | 0.00 | 54 | 1021.1 |
| 20260905113533 | 28 | 225 | 4.8 | 12.9 | 0.00 | 0.00 | 0.00 | 56 | 1021.2 |
| 20260905112530 | 27 | 220 | 4.8 | 11.3 | 0.00 | 0.00 | 0.00 | 57 | 1021.2 |
| 20260905111528 | 27 | 207 | 8.0 | 14.5 | 0.00 | 0.00 | 0.00 | 61 | 1021.2 |
| 20260905110525 | 27 | 209 | 3.2 | 8.0 | 0.00 | 0.00 | 0.00 | 63 | 1021.1 |